Miscellaneous Local Product
Issued by NWS North Platte, NE

Home | Current Version | Previous Version | Text Only | Print | Product List | Glossary On
Versions: 1 2 3 4 5 6 7 8 9 10 11 12 13 14 15 16 17 18 19 20 21 22 23 24 25 26 27 28 29 30 31 32 33 34 35 36 37 38 39 40 41 42 43 44 45 46 47 48 49 50
000
AXUS43 KLBF 060610
MISLBF


WESTERN AND NORTH CENTRAL NEBRASKA HOURLY WEATHER ROUNDUP
NATIONAL WEATHER SERVICE NORTH PLATTE NE
1200 AM CST FRI MAR 06 2015

***STATIONS NOT REPORTING VARIABLES SUCH AS SKY/WEATHER OR
PRESSURE ARE PROVIDED BY THE NEBRASKA DEPARTMENT OF
ROADS...RAWS...AND APRS NETWORKS...AND ARE NOT UNDER
NATIONAL WEATHER SERVICE QUALITY CONTROL***

...OBSERVATIONS IN AND NEAR THE EASTERN PANHANDLE OF NEBRASKA...

CITY           SKY/WX    TMP DP  RH WIND       PRES   REMARKS
PINE RIDGE     PTCLDY    25  18  74 W3        30.18F
CHADRON        PTCLDY    29  20  69 SW12      30.19F WCI  19
ALLIANCE       CLEAR     17  13  84 W6        30.20F WCI   9
SIDNEY         CLEAR     28  19  69 W10       30.24F WCI  19
WHITECLAY        N/A     25  18  74 E7          N/A  WCI  18
CRESCENT LAKE    N/A     26  11  53 W6          N/A  WCI  19
LISCO            N/A     30  17  60 W10         N/A  WCI  21
BIG SPRINGS      N/A     26  20  76 SW3         N/A
LEWELLEN         N/A     16   7  67 CALM        N/A
$$

...OBSERVATIONS IN NORTH CENTRAL NEBRASKA...

CITY           SKY/WX    TMP DP  RH WIND       PRES   REMARKS
VALENTINE      CLEAR     23  18  81 W7        30.16S WCI  15
THEDFORD       CLEAR     29  16  57 W8        30.19S WCI  21
AINSWORTH      CLEAR     27  18  67 W6        30.16S WCI  21
O`NEILL        CLEAR     27  13  54 SW9       30.15F WCI  18
ORD            CLEAR     16   6  65 CALM      30.18F
BROKEN BOW     CLEAR     27  10  49 NW3       30.19S
BROWNLEE         N/A     30  14  51 W7          N/A  WCI  23
SPRINGVIEW       N/A     22  13  68 CALM        N/A
BREWSTER         N/A     25  15  66 W6          N/A  WCI  18
ROSE             N/A     34  21  60 S6          N/A  WCI  28
NEWPORT          N/A     29  22  74 W7          N/A  WCI  22
SARGENT          N/A     19  12  73 CALM        N/A
COMSTOCK         N/A     33  12  43 W12         N/A  WCI  24
CHAMBERS         N/A     25   6  44 S5          N/A  WCI  19
EWING            N/A     28  11  48 S5          N/A  WCI  23
$$

...OBSERVATIONS IN SOUTHWEST NEBRASKA AND FAR NORTHEAST COLORADO...

CITY           SKY/WX    TMP DP  RH WIND       PRES   REMARKS
WRAY           FAIR      26  19  77 W8        30.26F WCI  17
HOLYOKE        FAIR      28  21  74 W9        30.25S WCI  20
IMPERIAL         N/A     29  14  53 W12       30.25S WCI  19
OGALLALA       CLEAR     24  16  72 CALM      30.23S
NORTH PLATTE   CLEAR     19  11  70 NW8       30.22F WCI   9
MCCOOK         CLEAR     27  16  63 W8        30.25S WCI  19
LEXINGTON      CLEAR     23  13  65 NW8       30.22S WCI  14
PAXTON           N/A     25  16  69 W3          N/A
BRADY            N/A     24  13  62 CALM        N/A
GOTHENBURG       N/A     29  11  47 W3          N/A
CALLAWAY         N/A     29  14  52 W7          N/A  WCI  22
$$

...NORTH PLATTE AREA...

CITY           SKY/WX    TMP DP  RH WIND       PRES   REMARKS
AIRPORT        CLEAR     19  11  70 NW8       30.22F WCI   9
DOWNTOWN         N/A     27  14  57 CALM        N/A
$$

...SOME WEATHER OBSERVATIONS FROM AROUND THE REGION...

CITY           SKY/WX    TMP DP  RH WIND       PRES   REMARKS
DENVER         PTCLDY    21  14  74 S10       30.25F WCI  10
LARAMIE        PTCLDY    24  10  55 W7        30.25S WCI  16
CHEYENNE       PTCLDY    31  13  47 W8        30.22F WCI  23
SCOTTSBLUFF    PTCLDY    27  20  75 CALM      30.23S
RAPID CITY     PTCLDY    30  16  56 W3        30.12F
PIERRE         CLEAR     24  17  74 W7        30.11S WCI  16
WINNER         FAIR      30  18  60 W10       30.13F WCI  21
SIOUX FALLS    CLEAR     22   8  55 S14       30.15F WCI   9
OMAHA          MOCLDY    26   8  46 S15       30.32F WCI  14
GRAND ISLAND   CLEAR     31   7  36 SW15      30.21F WCI  20
KANSAS CITY    CLEAR     23  13  65 S12       30.42F WCI  12
WICHITA        PTCLDY    31  19  61 S14       30.41F WCI  21
HAYS           CLEAR     27   9  46 SW8       30.30F WCI  18
LIBERAL        CLEAR     30  19  64 S10       30.34S WCI  21
GOODLAND       CLEAR     27  21  78 W12       30.28F WCI  17
$$



USA.gov is the U.S. government's official web portal to all federal, state and local government web resources and services.